This is the latest recevied weather packets stored in our database for station/object JA0BES-13. If no packets are shown the sender has not sent any weather packets the latest 10 day(s).
| Time | Temp. | Humidity | Pressure | Rain* | Wind** | Luminosity | Snow |
|---|---|---|---|---|---|---|---|
| 1777693948 | 23.89° C | 43% | 1006.9 hPa | 3.3 mm | - | - | - |
| 1777693347 | 23.89° C | 43% | 1006.9 hPa | 3.3 mm | - | - | - |
| 1777692747 | 23.89° C | 43% | 1006.6 hPa | 3.3 mm | - | - | - |
| 1777692146 | 23.33° C | 44% | 1006.5 hPa | 3.3 mm | - | - | - |
| 1777691546 | 23.33° C | 44% | 1006.4 hPa | 3.3 mm | - | - | - |
| 1777690945 | 23.33° C | 45% | 1006.6 hPa | 3.3 mm | - | - | - |
| 1777690345 | 23.33° C | 45% | 1006.3 hPa | 3.3 mm | - | - | - |
| 1777689745 | 22.78° C | 47% | 1006.3 hPa | 3.3 mm | - | - | - |
| 1777689145 | 22.78° C | 47% | 1006.6 hPa | 3.3 mm | - | - | - |
| 1777688544 | 22.22° C | 48% | 1006.6 hPa | 3.3 mm | - | - | - |
| 1777687944 | 22.22° C | 48% | 1006.6 hPa | 3.3 mm | - | - | - |
| 1777686741 | 21.11° C | 52% | 1006.2 hPa | 3.3 mm | - | - | - |
| 1777686141 | 21.11° C | 48% | 1006.1 hPa | 3.3 mm | - | - | - |
| 1777685541 | 21.11° C | 51% | 1006.1 hPa | 3.3 mm | - | - | - |
| 1777684940 | 20.56° C | 52% | 1006 hPa | 3.3 mm | - | - | - |
| 1777684340 | 20° C | 55% | 1005.8 hPa | 3.3 mm | - | - | - |
| 1777683740 | 19.44° C | 54% | 1005.6 hPa | 3.3 mm | - | - | - |
| 1777683139 | 18.89° C | 56% | 1005.7 hPa | 3.3 mm | - | - | - |
| 1777682539 | 18.33° C | 60% | 1005.7 hPa | 3.3 mm | - | - | - |
| 1777681939 | 17.78° C | 58% | 1005.8 hPa | 3.3 mm | - | - | - |
| 1777681338 | 17.22° C | 65% | 1005.7 hPa | 3.3 mm | - | - | - |
| 1777680738 | 16.67° C | 66% | 1005.5 hPa | 3.3 mm | - | - | - |
| 1777680137 | 16.67° C | 67% | 1005.7 hPa | 3.3 mm | - | - | - |
| 1777679537 | 16.11° C | 73% | 1005.6 hPa | 3.3 mm | - | - | - |
| 1777678937 | 15.56° C | 71% | 1005.5 hPa | 3.3 mm | - | - | - |
* Rain since midnight (hover to see other rain measurements)
** Current wind speed in m/s (hover to see current wind gust speed)